TimeAST,TemperatureF,Dew PointF,Humidity,Sea Level PressureIn,VisibilityMPH,Wind Direction,Wind SpeedMPH,Gust SpeedMPH,PrecipitationIn,Events,Conditions,WindDirDegrees,DateUTC
12:00 AM,77.0,62.6,61,29.83,-9999.0,East,3.5,-,N/A,,Clear,100,2013-04-02 21:00:00
12:30 AM,77.0,64.4,65,29.83,-9999.0,Variable,1.2,-,N/A,,Clear,0,2013-04-02 21:30:00
1:00 AM,77.0,62.6,61,29.83,-9999.0,Variable,1.2,-,N/A,,Clear,0,2013-04-02 22:00:00
1:30 AM,77.0,59.0,54,29.80,-9999.0,Variable,1.2,-,N/A,,Clear,0,2013-04-02 22:30:00
2:00 AM,77.0,60.8,57,29.80,-9999.0,SSW,5.8,-,N/A,,Clear,210,2013-04-02 23:00:00
2:30 AM,75.2,62.6,65,29.80,-9999.0,SW,5.8,-,N/A,,Clear,220,2013-04-02 23:30:00
3:00 AM,75,62,55,29.82,7,SW,5.8,,,,,220,2013-04-03 00:00:00
3:00 AM,75.2,62.6,65,29.80,-9999.0,SW,5.8,-,N/A,,Clear,220,2013-04-03 00:00:00
3:30 AM,75.2,62.6,65,29.80,-9999.0,SW,5.8,-,N/A,,Clear,220,2013-04-03 00:30:00
4:00 AM,75.2,62.6,65,29.83,-9999.0,SW,6.9,-,N/A,,Clear,220,2013-04-03 01:00:00
4:30 AM,75.2,62.6,65,29.83,-9999.0,SW,5.8,-,N/A,,Clear,220,2013-04-03 01:30:00
5:00 AM,75.2,60.8,61,29.83,-9999.0,SW,4.6,-,N/A,,Clear,220,2013-04-03 02:00:00
6:00 AM,75.2,60.8,61,29.86,-9999.0,Variable,2.3,-,N/A,,Clear,0,2013-04-03 03:00:00
7:00 AM,78.8,60.8,54,29.89,-9999.0,Variable,2.3,-,N/A,,Clear,0,2013-04-03 04:00:00
7:30 AM,82.4,59.0,45,29.89,-9999.0,Calm,Calm,-,N/A,,Clear,0,2013-04-03 04:30:00
8:00 AM,86.0,53.6,33,29.89,-9999.0,East,3.5,-,N/A,,Clear,100,2013-04-03 05:00:00
9:00 AM,87,53,22,29.94,6,SSW,8.1,,,,Clear,200,2013-04-03 06:00:00
9:00 AM,87.8,53.6,31,29.92,-9999.0,SSW,8.1,-,N/A,,Clear,200,2013-04-03 06:00:00
9:30 AM,89.6,50.0,26,29.92,-9999.0,South,6.9,-,N/A,,Clear,190,2013-04-03 06:30:00
10:00 AM,91.4,50.0,24,29.92,-9999.0,South,6.9,-,N/A,,Clear,190,2013-04-03 07:00:00
10:30 AM,93.2,46.4,20,29.92,-9999.0,SSE,5.8,-,N/A,,Clear,160,2013-04-03 07:30:00
11:00 AM,95.0,44.6,18,29.92,-9999.0,SE,5.8,-,N/A,,Clear,130,2013-04-03 08:00:00
11:30 AM,91.4,35.6,14,29.92,-9999.0,ESE,12.7,-,N/A,,Clear,110,2013-04-03 08:30:00
12:00 PM,93.2,41.0,16,29.89,-9999.0,ESE,12.7,-,N/A,,Clear,120,2013-04-03 09:00:00
12:30 PM,93.2,37.4,14,29.89,-9999.0,ESE,11.5,-,N/A,,Clear,120,2013-04-03 09:30:00
1:00 PM,91.4,39.2,16,29.86,-9999.0,ESE,11.5,-,N/A,,Clear,120,2013-04-03 10:00:00
2:00 PM,89.6,42.8,20,29.86,-9999.0,ESE,12.7,-,N/A,,Clear,110,2013-04-03 11:00:00
2:30 PM,87.8,44.6,22,29.86,-9999.0,ESE,10.4,-,N/A,,Clear,120,2013-04-03 11:30:00
3:00 PM,90,40,9,29.86,7,ESE,9.2,,,,Clear,120,2013-04-03 12:00:00
3:00 PM,89.6,39.2,17,29.86,-9999.0,ESE,9.2,-,N/A,,Clear,120,2013-04-03 12:00:00
3:30 PM,89.6,44.6,21,29.86,-9999.0,ESE,8.1,-,N/A,,Clear,110,2013-04-03 12:30:00
4:00 PM,87.8,48.2,25,29.83,-9999.0,ESE,9.2,-,N/A,,Clear,120,2013-04-03 13:00:00
4:30 PM,86.0,51.8,31,29.83,-9999.0,ESE,9.2,-,N/A,,Clear,110,2013-04-03 13:30:00
5:00 PM,84.2,60.8,45,29.83,-9999.0,ESE,10.4,-,N/A,,Clear,120,2013-04-03 14:00:00
6:00 PM,82.4,64.4,54,29.83,-9999.0,ESE,9.2,-,N/A,,Clear,120,2013-04-03 15:00:00
6:30 PM,80.6,64.4,58,29.83,-9999.0,ESE,8.1,-,N/A,,Clear,120,2013-04-03 15:30:00
7:00 PM,80.6,64.4,58,29.83,-9999.0,ESE,5.8,-,N/A,,Clear,110,2013-04-03 16:00:00
8:00 PM,80.6,60.8,51,29.86,-9999.0,SE,4.6,-,N/A,,Clear,130,2013-04-03 17:00:00
8:30 PM,80.6,62.6,54,29.83,-9999.0,SE,3.5,-,N/A,,Clear,130,2013-04-03 17:30:00
9:00 PM,80,63,46,29.86,7,ESE,4.6,,,,,110,2013-04-03 18:00:00
9:00 PM,80.6,62.6,54,29.83,-9999.0,ESE,4.6,-,N/A,,Clear,110,2013-04-03 18:00:00
9:30 PM,80.6,64.4,58,29.86,-9999.0,SSE,4.6,-,N/A,,Clear,150,2013-04-03 18:30:00
10:00 PM,80.6,60.8,51,29.86,-9999.0,East,4.6,-,N/A,,Clear,100,2013-04-03 19:00:00
10:30 PM,78.8,66.2,65,29.86,-9999.0,East,3.5,-,N/A,,Clear,100,2013-04-03 19:30:00
11:00 PM,78.8,66.2,65,29.86,-9999.0,East,3.5,-,N/A,,Clear,90,2013-04-03 20:00:00